Regional Weather Roundup
Issued by NWS Wakefield, VA

Home | Current Version | Previous Version | Graphics & Text | Print | Product List | Glossary On
Versions: 1 2 3 4 5 6 7 8 9 10 11 12 13 14 15 16 17 18 19 20 21 22 23 24 25 26 27 28
000
ASUS41 KAKQ 260415
RWRAKQ

REGIONAL WEATHER ROUNDUP
NATIONAL WEATHER SERVICE WAKEFIELD VA
1200 AM EDT TUE JUL 26 2016

Note: "fair" indicates few or no clouds below 12,000 feet with no
significant weather and/or obstructions to visibility. * = Denotes
station may not report precipitation (e.g., rain,snow,etc.),
thunder or fog.

VAZ042-051-052>054-056-260500-
NORTHERN VIRGINIA

CITY           SKY/WX    TMP DP  RH WIND       PRES   REMARKS
WASH NATIONAL  FAIR      85  73  67 E12       29.91R
DULLES         FAIR      84  71  65 NW7       29.92R
FORT BELVOIR   FAIR      77  75  93 VRB1      29.90S
QUANTICO       NOT AVBL
FREDERICKSBRG* FAIR      86  77  75 W3        29.89F HX  97
STAFFORD*      FAIR      81  75  82 CALM      29.95S
WARRENTON      FAIR      80  70  72 CALM      29.91S
CULPEPER*      FAIR      77  77  99 CALM      29.93S FOG
MANASSAS*      FAIR      81  75  83 CALM      29.91S
LEESBURG*      FAIR      82  73  74 NW6       29.93S
WINCHESTER     FAIR      79  70  73 W5        29.95S
FRONT ROYAL*   FAIR      77  72  83 S3        29.95S
LURAY*         FAIR      75  75 100 E5        29.96F
$$

VAZ048-049-060>072-079>083-260500-
CENTRAL AND SOUTH CENTRAL VIRGINIA

CITY           SKY/WX    TMP DP  RH WIND       PRES   REMARKS
RICHMOND       CLOUDY    84  75  74 SW10      29.93S
CHESTERFIELD*  FAIR      82  66  57 S5        29.95S
PETERSBURG*    FAIR      83  77  82 CALM      29.95S
HANOVER        FAIR      86  73  65 SW7       29.94S
TAPPAHANNOCK*  FAIR      85  75  71 S8        29.91F
QUINTON*       FAIR      83  78  85 CALM      29.92F
CHARLOTTSVILLE FAIR      82  72  71 CALM      29.95S
GORDONSVILLE*  FAIR      82  76  83 CALM      29.94R
ORANGE*          N/A     81  77  89 CALM      29.95S
LOUISA*        FAIR      84  79  84 SW3       29.93S HX  96
BUMPASS*       FAIR      81  76  85 SW3       29.93S
FARMVILLE*     FAIR      81  77  89 CALM      29.94S
CREWE*         FAIR      84  77  80 SW5       29.96R
FORT PICKETT*  FAIR      83  79  86 SW10      29.96S
CHASE CITY*    FAIR      83  76  78 CALM      29.99R
CLARKSVILLE*   FAIR      81  75  83 SW5       29.98R
SOUTH HILL*    FAIR      82  76  82 S7        30.03R
LAWRENCEVILLE* FAIR      82  76  81 S3        29.97R
EMPORIA*       FAIR      81  73  78 CALM      29.98R
$$

VAZ088>098-260500-
SOUTHEAST VIRGINIA

CITY           SKY/WX    TMP DP  RH WIND       PRES   REMARKS
NORFOLK        FAIR      85  76  74 SW16      29.95S
VIRGINIA BEACH FAIR      89  75  63 SW14      29.95S HX  99
NORFOLK NAVAL  MOCLDY    84  76  76 S9G20     29.96S
WEST POINT*    FAIR      85  75  72 SW8       29.93F
SALUDA*        FAIR      84  79  84 S7        29.91F HX  96
NEWPORT NEWS   FAIR      85  77  77 SW14      29.94S HX  95
LANGLEY AFB    FAIR      85  77  77 S12       29.94S HX  96
FORT EUSTIS    FAIR      85  78  80 S7        29.93R HX  96
WILLIAMSBURG*  FAIR      88  77  70 S9        29.95S HX 100
HR EXEC AP*    FAIR      82  75  78 SW8       29.98S
FRANKLIN*      FAIR      82  76  80 S8        29.97R
US460-WAKEFLD  FAIR      82  76  81 S6        29.95R
$$

VAZ020-022-025-037-045-260500-
WEST CENTRAL AND SOUTHWEST VIRGINIA

CITY           SKY/WX    TMP DP  RH WIND       PRES   REMARKS
STAUNTON*      FAIR      77  71  80 CALM      30.01F
WAYNESBORO*    FAIR      79  69  71 W7        30.01F
HOT SPRINGS VA FAIR      73  70  88 W8        30.17S
LYNCHBURG      FAIR      76  71  85 S5        30.00S
DANVILLE       FAIR      79  74  84 SW5       29.99S
SOUTH BOSTON*  FAIR      82  75  78 CALM      29.98S
MARTINSVILLE   FAIR      75  73  95 CALM      30.04S
ROANOKE        FAIR      77  75  93 CALM      30.03F
BLACKSBURG     FAIR      71  70  97 CALM      30.13S
DUBLIN*        MOCLDY    73  72  96 SW5       30.11F
MARION*        FAIR      74  69  84 CALM      30.16F
HILLSVILLE*    CLOUDY    73  71  92 W5        30.14S
RICHLANDS*     FAIR      72  70  94 CALM      30.15S
WISE*          FAIR      72  68  88 CALM      30.16F
ABINGDON*      FAIR      74  69  83 CALM      30.11F
$$

MDZ021>025-VAZ099-100-260500-
SOUTHERN MARYLAND AND THE DELMARVA PENINSULA

CITY           SKY/WX    TMP DP  RH WIND       PRES   REMARKS
PATUXENT RIVER PTCLDY    87  75  67 SW12      29.88S HX  96
BAY BRIDGE APT MOCLDY    77  73  88 E10       29.90F
LEONARDTOWN    MOCLDY    86  75  70 SW6       29.91R HX  95
DOVER          CLOUDY    79  74  86 SE8       29.89F
GEORGETOWN     MOCLDY    79  69  71 E7        29.93S
EASTON         LGT RAIN  76  76 100 E15       29.95F
CAMBRIDGE      CLOUDY    82  73  74 N9G24     29.89R
SALISBURY      CLOUDY    82  76  81 S5        29.88F
OCEAN CITY     CLOUDY    79  75  87 E5        29.90F
WALLOPS ISLAND FAIR      80  76  87 S8        29.90F
ACCOMACK*      FAIR      84  73  70 CALM      29.91F
$$

NCZ012>017-030>032-260500-
NORTH CENTRAL AND EASTERN NORTH CAROLINA

CITY           SKY/WX    TMP DP  RH WIND       PRES   REMARKS
ROANOKE RAPIDS FAIR      79  73  83 S7        29.97S
RALEIGH        CLOUDY    84  72  67 SW12      30.00S
ELIZABETH CITY PTCLDY    82  74  76 SW13      29.98S
AHOSKIE*       PTCLDY    80  75  84 S7        29.98R
EDENTON*       PTCLDY    83  73  72 SW12G17   29.99F
CURRITUCK*     PTCLDY    83  75  75 SW7       29.98F
KILL DEVIL HLS PTCLDY    82  75  80 SW8G16    29.99S
MANTEO           N/A     82  78  89 SW16      30.00S
CAPE HATTERAS  PTCLDY    81  75  82 SW12      30.03S
TARBORO*       FAIR      82  75  80 S6        30.00R
GOLDSBORO      PTCLDY    81  77  87 SW7       30.00S
WASHINGTON     NOT AVBL
GREENVILLE     CLEAR     81  73  78 SW10G16   30.02S
NEW BERN       CLOUDY    79  75  87 SW8       30.04R
WILMINGTON     CLEAR     80  73  79 SW7       30.05R
$$

VAZ048-260500-
ELSEWHERE

CITY           SKY/WX    TMP DP  RH WIND       PRES   REMARKS
HARRISBURG PA  PTCLDY    73  71  93 CALM      29.93R
BALTIMORE      PTCLDY    78  71  79 SE6       29.91F
ANNAPOLIS      CLOUDY    79  75  87 E7        29.91F
ANDREWS AFB    FAIR      77  73  89 E9        29.92R
PHILADELPHIA   MOCLDY    75  72  90 W5        29.92S
GREENSBORO     PTCLDY    84  71  65 SW9       30.02S
ROCKY MOUNT    CLEAR     82  75  79 S8G18     30.00R
$$

VAZ100-260500-
MARINE

STATION/POSITION TIME  TEMP    WIND        PRES    WAVE   SWELL
                       AIR SEA DIR/SP/G            HT/PER HT/PER
                 (UTC) (F)     (DEG/KT/KT) (MB)    (FT/S) (FT/S)
BRANDYWINE LGT   0300   79      90/ 13/ 15   N/A
CAPE MAY NJ      0300   77 72   80/  7/ 11   N/A
LEWES DE         0300   76 73  100/ 13/ 15   N/A
OCEAN-CITY-INLET 0300   74 75  200/  7/  9   N/A
WACHAPREAGUE VA  0300   84 88  220/  5/  7   N/A
THOMAS POINT MD  0400   79 83  120/ 12/ 13 1014.2R
GOOSES REEF MD   0400   79 85  360/ 25/ 33 1015.1R   1/ 3
COVE POINT MD    0300   87     230/ 11/ 14   N/A
SOLOMONS ISLAND  0300   87 85  220/ 11/ 13   N/A
BISHOPS HEAD MD  0300   88     200/ 14/ 18   N/A
PINEY POINT MD   0300          240/ 10/ 12   N/A
POTOMAC MD       0400   87 87  230/ 16/ 17 1010.8F   1/ 3
CAMBRIDGE MD     0300   87 87  180/  4/  6   N/A
LEWISETTA VA     0300   87 89  230/ 11/ 13   N/A
RAPPAHANNOCK LGT 0300          200/ 15/ 16   N/A
STINGRAY PT      0400   88 86  160/ 14/ 16 1013.1F   1/ 2
YORK RVR RNG VA  0300   87     220/ 14/ 16   N/A
YORKTOWN VA      0300   88 85  220/  8/ 12   N/A
JAMESTOWN VA     0400   85 88  200/  8/ 12   N/A     0
DOMINION TERM VA 0300   86     210/ 15/ 17   N/A
KIPTOPEKE VA     0300      83  190/ 10/ 12   N/A
CHES BAY BRIDGE  0300   86 83  190/ 15/ 16   N/A
CAPE HENRY VA    0300   86     200/  9/ 14   N/A
WILLOUBY STN VA  0300   87     200/ 15/ 17   N/A
CAPE HENRY BUOY  0312      78                N/A     3/ 5
1ST LANDING BUOY 0400   84 80  210/ 14/ 17 1013.5F
CAPE CHARLES BUO 0326      71                N/A     2/ 4
OFFSHORE WE BUOY 0321      82                N/A     4/ 6
64NM E OF VA BCH 0350   83 81  220/ 17/ 21 1014.6S   4/ 6   2/ 8
DUCK PIER NC     0300   84 64  210/ 14/ 18   N/A
44100 DUCK FRF   0305      74                N/A     2/ 4
44056 DUCK FRF   0311      69                N/A     2/ 8
OREGON INLET NC  0300   84 85  210/ 20/ 23   N/A
HATTERAS NC      0300   83 83  220/ 11/ 16   N/A
DIAMOND SHLS NC  0350   84 85  220/ 17/ 21 1016.8S   5/ 5   2/ 8
CAPE LOOKOUT NC  0400   83     230/ 11/ 15 1017.3R
$$




USA.gov is the U.S. government's official web portal to all federal, state and local government web resources and services.